Weather History for KORD - October, 2013

Change the Weather History Date:

Saturday, October 26, 2013

  Actual Average Record
Temperature  
Mean Temperature 46 °F 49 °F  
Max Temperature 55 °F 58 °F 84 °F (1963)
Min Temperature 37 °F 40 °F 22 °F (1942)
Degree Days  
Heating Degree Days 19 16  
Month to date heating degree days 304 312  
Since 1 July heating degree days 383 430  
Cooling Degree Days 0 0  
Month to date cooling degree days 25 10  
Year to date cooling degree days 933 842  
Moisture  
Dew Point 29 °F    
Average Humidity 54    
Maximum Humidity 70    
Minimum Humidity 38    
Precipitation  
Precipitation 0.00 in 0.11 in 1.51 in (1997)
Month to date precipitation 1.53 2.62  
Year to date precipitation 36.47 30.96  
Snow  
Snow 0.00 in 0.10 in 1.90 in (1957)
Month to date snowfall T 0.2  
Since 1 July snowfall T 0.2  
Since 1 September snowfall T 0.2  
Snow Depth 0.00 in    
Sea Level Pressure  
Sea Level Pressure 29.95 in    
Wind  
Wind Speed 14 mph (West)    
Max Wind Speed 23 mph    
Max Gust Speed 36 mph    
Visibility 10 miles    
Events      
T = Trace of Precipitation, MM = Missing Value Source: NWS Daily Summary

Daily Weather History Graph

Daily Weather History Graph

Search for Another Location

Airport or City:

Trip Planner

Search our weather history database for the weather conditions in past years. The results will help you decide how hot, cold, wet, or windy it might be!

Date:

Astronomy

Oct. 26, 2013 Rise Set
Actual Time 7:17 AM CDT 5:53 PM CDT
Civil Twilight 6:48 AM CDT 6:21 PM CDT
Nautical Twilight 6:15 AM CDT 6:54 PM CDT
Astronomical Twilight 5:43 AM CDT 7:26 PM CDT
Moon No Moon Rise 1:34 PM CDT (10/26)
Length of Visible Light 11h 33m
Length of Day
10h 35m
Waning Gibbous, 53% of the Moon is Illuminated
Oct 26
Waning Gibbous
Oct 26
Last Quarter
Nov 3
New
Nov 9
First Quarter
Nov 17
Full

Hourly Weather History & Observations

Time (CDT) Temp. Windchill Dew Point Humidity Pressure Visibility Wind Dir Wind Speed Gust Speed Precip Events Conditions
12:51 AM 44.1 °F 36.8 °F 27.0 °F 51% 30.02 in 10.0 mi SW 16.1 mph 25.3 mph N/A   Scattered Clouds
1:51 AM 43.0 °F 34.5 °F 27.0 °F 53% 29.99 in 10.0 mi SW 19.6 mph 31.1 mph N/A   Partly Cloudy
2:51 AM 43.0 °F 34.0 °F 27.0 °F 53% 29.94 in 10.0 mi SW 21.9 mph 28.8 mph N/A   Scattered Clouds
3:51 AM 44.1 °F 36.5 °F 27.0 °F 51% 29.90 in 10.0 mi SW 17.3 mph 27.6 mph N/A   Mostly Cloudy
4:51 AM 46.0 °F 38.5 °F 27.0 °F 47% 29.88 in 10.0 mi SW 19.6 mph 27.6 mph N/A   Overcast
5:51 AM 46.0 °F 39.9 °F 28.0 °F 50% 29.87 in 10.0 mi SW 13.8 mph 21.9 mph N/A   Overcast
6:51 AM 46.0 °F 38.8 °F 28.0 °F 50% 29.86 in 10.0 mi WSW 18.4 mph 26.5 mph N/A   Overcast
7:51 AM 45.0 °F 37.1 °F 28.9 °F 53% 29.85 in 10.0 mi WSW 19.6 mph 24.2 mph N/A   Overcast
8:51 AM 46.9 °F - 30.9 °F 54% 29.85 in 10.0 mi WSW 20.7 mph 27.6 mph N/A   Scattered Clouds
9:51 AM 48.0 °F - 32.0 °F 54% 29.85 in 10.0 mi West 16.1 mph - N/A   Mostly Cloudy
10:51 AM 50.0 °F - 34.0 °F 54% 29.86 in 10.0 mi West 15.0 mph - N/A   Scattered Clouds
11:51 AM 51.1 °F - 35.1 °F 54% 29.87 in 10.0 mi WNW 16.1 mph 23.0 mph N/A   Mostly Cloudy
12:51 PM 53.1 °F - 35.1 °F 50% 29.88 in 10.0 mi NW 15.0 mph 20.7 mph N/A   Mostly Cloudy
1:51 PM 52.0 °F - 32.0 °F 47% 29.89 in 10.0 mi NNW 19.6 mph 26.5 mph N/A   Overcast
2:51 PM 52.0 °F - 30.0 °F 43% 29.92 in 10.0 mi NNW 17.3 mph - N/A   Mostly Cloudy
3:51 PM 52.0 °F - 30.0 °F 43% 29.96 in 10.0 mi NW 13.8 mph - N/A   Mostly Cloudy
4:51 PM 52.0 °F - 27.0 °F 38% 29.98 in 10.0 mi NW 16.1 mph 21.9 mph N/A   Scattered Clouds
5:51 PM 48.9 °F - 27.0 °F 43% 30.00 in 10.0 mi NNW 13.8 mph 24.2 mph N/A   Scattered Clouds
6:51 PM 46.0 °F 41.9 °F 27.0 °F 47% 30.03 in 10.0 mi NW 8.1 mph - N/A   Scattered Clouds
7:51 PM 44.1 °F 40.1 °F 28.9 °F 55% 30.05 in 10.0 mi NW 6.9 mph - N/A   Partly Cloudy
8:51 PM 43.0 °F 38.2 °F 28.0 °F 56% 30.06 in 10.0 mi NW 8.1 mph - N/A   Partly Cloudy
9:51 PM 41.0 °F 36.4 °F 28.0 °F 60% 30.08 in 10.0 mi WNW 6.9 mph - N/A   Scattered Clouds
10:51 PM 37.9 °F 34.4 °F 28.9 °F 70% 30.07 in 10.0 mi West 4.6 mph - N/A   Mostly Cloudy
11:51 PM 37.0 °F 31.6 °F 28.9 °F 73% 30.06 in 10.0 mi West 6.9 mph - N/A   Overcast